Waarnemingen

Advertentie
Mijn weer
Svanberga, Zweden (2490): temperatuur & dauwpunt: 14.10.2018 21:00:00 - 20.10.2018 21:00:00 (CEST)Svanberga, Zweden (2490): windsnelheid & windstoten: 14.10.2018 21:00:00 - 20.10.2018 21:00:00 (CEST)Svanberga, Zweden (2490): windrichting: 14.10.2018 21:00:00 - 20.10.2018 21:00:00 (CEST)Svanberga, Zweden (2490): luchtdruk: 14.10.2018 21:00:00 - 20.10.2018 21:00:00 (CEST)Svanberga, Zweden (2490): zicht: 14.10.2018 21:00:00 - 20.10.2018 21:00:00 (CEST)Svanberga, Zweden (2490): neerslag: 14.10.2018 21:00:00 - 20.10.2018 21:00:00 (CEST)
Datum & Tijd tt [°C] td [°C] ff [km/u] ff [kn] fx [km/u] fx [kn] dd ppp [hPa] vv [km] rr [mm]
20.10.2018 21:00:00 -0,2 -0,2 4 2 7 4 Z 1022,7 1,5 0,0
20.10.2018 20:00:00 0,3 0,2 0 0 4 2 N 1022,4 7 0,0
20.10.2018 19:00:00 1,7 1,6 0 0 7 4 N 1022,2 48 0,0
20.10.2018 18:00:00 2,3 1,7 0 0 3 1 N 1022,1 35 0,0
20.10.2018 17:00:00 6,3 5,1 0 0 5 3 N 1021,6 50 0,0
20.10.2018 16:00:00 10,4 4,7 2 1 5 3 W 1021,4 39 0,0
20.10.2018 15:00:00 11,7 4,2 0 0 6 3 N 1021,6 47 0,0
20.10.2018 14:00:00 10,7 5,2 4 2 7 4 ZW 1021,3 50 0,0
20.10.2018 13:00:00 9,7 5,1 0 0 6 4 N 1021,1 50 0,0
20.10.2018 12:00:00 9,9 4,3 3 2 13 7 ZW 1020,9 50 0,0
20.10.2018 11:00:00 8,8 5,4 5 3 14 8 ZW 1020,8 50 0,0
20.10.2018 10:00:00 6,2 6,1 7 4 15 8 ZW 1020,3 36 0,2
20.10.2018 09:00:00 3,8 - 0 0 4 2 N 1020,2 44 0,0
20.10.2018 08:00:00 2,7 2,7 0 0 7 4 N 1020,1 34 0,0
20.10.2018 07:00:00 2,2 - 0 0 5 3 N 1019,9 31 0,0
20.10.2018 06:00:00 1,9 - 0 0 2 1 N 1019,6 40 0,0
20.10.2018 05:00:00 1,3 - 0 0 3 2 N 1019,8 36 0,0
20.10.2018 04:00:00 0,4 - 0 0 2 1 N 1019,9 21 0,0
20.10.2018 03:00:00 -0,3 - 0 0 2 1 N 1020,3 37 0,0
20.10.2018 02:00:00 -1,1 - 0 0 3 2 N 1020,7 16 0,0
20.10.2018 01:00:00 -1,7 - 0 0 3 1 N 1021,0 28 0,0
20.10.2018 00:00:00 -1,0 -1,0 0 0 2 1 N 1020,8 37 0,0
19.10.2018 23:00:00 -1,7 -1,7 0 0 3 1 N 1020,9 28 0,0
19.10.2018 22:00:00 0,3 0,3 0 0 6 3 N 1021,3 50 0,0
19.10.2018 21:00:00 0,0 0,0 0 0 5 3 N 1021,5 50 0,0
19.10.2018 20:00:00 0,5 0,1 0 0 3 2 N 1021,4 50 0,0
19.10.2018 19:00:00 1,0 0,3 0 0 3 2 N 1021,3 50 0,0
19.10.2018 18:00:00 3,0 1,0 0 0 5 3 N 1021,4 50 0,0
19.10.2018 17:00:00 6,4 2,7 3 1 13 7 ZW 1021,3 50 0,0
19.10.2018 16:00:00 11,0 1,5 7 4 14 8 WNW 1021,6 50 0,0
19.10.2018 15:00:00 11,7 2,4 3 2 14 8 W 1021,8 47 0,0
19.10.2018 14:00:00 11,1 3,1 5 3 14 8 W 1022,2 50 0,0
19.10.2018 13:00:00 10,3 3,3 6 3 14 8 W 1022,3 49 0,0
19.10.2018 12:00:00 8,7 5,1 5 3 11 6 W 1022,4 49 0,0
19.10.2018 11:00:00 5,8 4,0 4 2 9 5 WZW 1022,4 48 0,0
19.10.2018 10:00:00 3,6 3,6 4 2 9 5 W 1022,4 42 0,0
19.10.2018 09:00:00 0,6 0,6 3 1 8 4 W 1022,4 33 0,0
19.10.2018 08:00:00 -2,2 -2,2 3 2 6 4 ZW 1022,1 21 0,0
19.10.2018 07:00:00 -2,0 -2,0 4 2 8 4 WZW 1021,8 20 0,0
19.10.2018 06:00:00 -1,2 -1,2 4 2 8 4 W 1021,8 16 0,0
19.10.2018 05:00:00 -1,7 -1,7 4 2 8 4 WZW 1021,5 16 0,0
19.10.2018 04:00:00 -0,8 -0,8 5 3 8 4 WZW 1021,4 10 0,0
19.10.2018 03:00:00 -0,9 -0,9 4 2 7 4 WZW 1021,2 14 0,0
19.10.2018 02:00:00 0,0 0,0 2 1 5 3 ZW 1021,3 2,4 0,0
19.10.2018 01:00:00 -0,9 -0,9 0 0 4 2 N 1021,3 1,1 0,0
19.10.2018 00:00:00 -0,3 -0,3 0 0 4 2 N 1021,2 3,8 0,0
18.10.2018 23:00:00 0,4 0,4 2 1 4 2 ZW 1020,7 7 0,0
18.10.2018 22:00:00 0,5 0,5 0 0 4 2 N 1020,1 1,0 0,0
18.10.2018 21:00:00 2,3 2,2 0 0 5 3 N 1019,8 23 0,0
18.10.2018 20:00:00 1,5 1,4 0 0 4 2 N 1019,2 1,2 0,0
18.10.2018 19:00:00 3,6 3,3 0 0 5 3 N 1018,6 48 0,0
18.10.2018 18:00:00 6,0 3,8 0 0 11 6 N 1018,3 50 0,0
18.10.2018 17:00:00 10,0 6,3 4 2 16 9 NNO 1017,4 50 0,0
18.10.2018 16:00:00 11,5 6,8 7 4 29 16 N 1016,5 47 0,0
18.10.2018 15:00:00 14,3 7,4 8 5 20 11 WNW 1015,4 48 0,0
18.10.2018 14:00:00 12,8 6,2 12 6 23 12 WNW 1014,8 50 0,0
18.10.2018 13:00:00 13,4 8,5 9 5 22 12 W 1014,6 49 0,0
18.10.2018 12:00:00 12,3 9,5 6 3 21 11 W 1014,5 37 0,0
18.10.2018 11:00:00 12,7 11,1 9 5 21 11 W 1014,4 21 0,0
18.10.2018 10:00:00 11,8 11,2 8 4 16 9 WZW 1014,1 11 0,0
18.10.2018 09:00:00 11,8 11,3 5 3 14 7 WZW 1014,3 6 0,1
18.10.2018 08:00:00 12,0 11,4 6 3 16 9 WZW 1013,9 7 0,0
18.10.2018 07:00:00 12,4 11,5 6 3 17 9 ZW 1013,8 9 0,0
18.10.2018 06:00:00 12,3 11,5 5 3 12 7 ZW 1013,8 8 0,0
18.10.2018 05:00:00 12,4 11,5 4 2 14 7 ZW 1014,0 9 0,0
18.10.2018 04:00:00 12,7 11,6 4 2 13 7 ZW 1014,3 11 0,0
18.10.2018 03:00:00 12,7 11,4 4 2 14 8 ZZW 1014,8 15 0,0
18.10.2018 02:00:00 12,7 11,3 5 3 14 7 ZW 1015,1 19 0,0
18.10.2018 01:00:00 12,8 11,0 3 2 14 8 ZZW 1015,4 23 0,0
18.10.2018 00:00:00 12,3 11,0 3 2 8 5 ZW 1015,6 16 0,0
17.10.2018 23:00:00 12,4 11,1 3 2 16 9 ZZW 1015,8 14 0,0
17.10.2018 22:00:00 12,2 11,3 6 4 14 8 Z 1015,8 9 0,0
17.10.2018 21:00:00 11,6 11,3 5 3 11 6 Z 1016,2 6 0,0
17.10.2018 20:00:00 11,6 11,1 4 2 12 6 Z 1016,5 6 0,0
17.10.2018 19:00:00 11,6 11,3 4 2 11 6 Z 1016,6 8 0,0
17.10.2018 18:00:00 9,8 9,3 0 0 6 3 N 1016,8 5 0,0
17.10.2018 17:00:00 13,0 11,6 3 2 12 6 ZW 1016,6 12 0,0
17.10.2018 16:00:00 13,6 11,8 5 3 19 10 ZW 1016,8 12 0,0
17.10.2018 15:00:00 13,3 12,0 7 4 20 11 WZW 1016,8 9 0,0
17.10.2018 14:00:00 12,7 11,8 8 4 25 13 WZW 1017,1 8 0,0
17.10.2018 13:00:00 12,8 11,9 12 7 29 16 WZW 1017,0 6 0,0
17.10.2018 12:00:00 12,7 11,9 4 2 15 8 WZW 1016,9 6 0,0
17.10.2018 11:00:00 12,0 11,4 6 3 13 7 ZW 1017,2 5 0,0
17.10.2018 10:00:00 11,0 10,7 3 2 11 6 WZW 1017,1 4,6 0,0
17.10.2018 09:00:00 10,2 10,2 2 1 8 4 WZW 1017,0 4,5 0,0
17.10.2018 08:00:00 9,2 9,2 2 1 8 4 Z 1017,0 3,1 0,0
17.10.2018 07:00:00 9,2 9,2 3 2 10 5 ZZO 1016,9 3,9 0,0
17.10.2018 06:00:00 9,6 9,6 3 1 8 5 ZO 1017,0 5 0,0
17.10.2018 05:00:00 9,6 9,6 4 2 11 6 ZO 1017,4 8 0,0
17.10.2018 04:00:00 9,3 9,3 5 3 13 7 ZZO 1017,8 11 0,0
17.10.2018 03:00:00 9,1 9,1 6 3 11 6 ZO 1018,1 9 0,4
17.10.2018 02:00:00 9,0 9,0 3 2 10 5 ZO 1018,8 12 0,0
17.10.2018 01:00:00 8,9 8,9 5 3 11 6 OZO 1018,8 12 0,0
17.10.2018 00:00:00 8,7 8,7 0 0 5 3 N 1019,5 0,6 0,0
16.10.2018 23:00:00 8,6 8,5 2 1 9 5 ONO 1019,7 1,2 0,0
16.10.2018 22:00:00 8,6 8,2 3 2 9 5 O 1020,1 19 0,0
16.10.2018 21:00:00 8,5 8,1 4 2 9 5 O 1020,3 26 0,0
16.10.2018 20:00:00 8,4 7,8 5 3 10 6 O 1020,2 25 0,0
16.10.2018 19:00:00 8,5 7,7 5 3 8 4 ONO 1020,4 50 0,0
16.10.2018 18:00:00 8,6 7,7 4 2 8 4 NO 1020,3 50 0,0
16.10.2018 17:00:00 8,9 7,7 6 3 11 6 ONO 1020,0 50 0,0
16.10.2018 16:00:00 9,1 7,7 7 4 13 7 NO 1020,0 50 0,0
16.10.2018 15:00:00 9,3 7,5 6 3 14 8 NNO 1020,0 50 0,0
16.10.2018 14:00:00 9,5 7,9 6 3 15 8 NNO 1019,9 50 0,0
16.10.2018 13:00:00 9,7 8,1 5 3 14 7 NNO 1019,6 50 0,0
16.10.2018 12:00:00 9,8 8,6 4 2 14 8 NNO 1019,4 46 0,0
16.10.2018 11:00:00 10,1 9,0 5 3 11 6 NNO 1018,7 50 0,0
16.10.2018 10:00:00 10,0 9,2 3 2 10 5 NNO 1017,8 18 0,1
16.10.2018 09:00:00 9,5 9,5 4 2 10 5 NNW 1017,4 10 0,0
16.10.2018 08:00:00 9,0 9,0 3 2 9 5 NW 1016,6 7 0,0
16.10.2018 07:00:00 8,0 8,0 3 2 9 5 W 1016,0 4,7 0,0
16.10.2018 06:00:00 4,6 4,6 0 0 0 0 N 1015,3 1,2 0,0
16.10.2018 05:00:00 4,5 4,5 0 0 0 0 N 1014,5 0,5 0,0
16.10.2018 04:00:00 6,0 6,0 0 0 6 3 N 1013,9 1,9 0,0
16.10.2018 03:00:00 4,9 4,9 0 0 4 2 N 1013,9 0,5 0,0
16.10.2018 02:00:00 4,6 4,5 0 0 5 3 N 1013,9 0,4 0,0
16.10.2018 01:00:00 5,3 5,0 0 0 5 3 N 1013,2 1,2 0,0
16.10.2018 00:00:00 9,2 8,3 3 1 10 5 ZO 1013,2 12 0,0
15.10.2018 23:00:00 9,8 8,4 4 2 12 6 Z 1013,2 14 0,0
15.10.2018 22:00:00 9,9 8,3 4 2 13 7 Z 1013,3 14 0,0
15.10.2018 21:00:00 9,8 8,1 4 2 15 8 ZZO 1013,6 16 0,0
15.10.2018 20:00:00 11,6 8,1 4 2 17 9 Z 1013,7 20 0,0
15.10.2018 19:00:00 12,9 8,2 5 3 17 9 Z 1013,4 24 0,0
15.10.2018 18:00:00 14,5 8,7 6 4 17 9 Z 1013,7 26 0,0
15.10.2018 17:00:00 15,9 9,3 4 2 14 8 ZZO 1013,4 22 0,0
15.10.2018 16:00:00 18,0 9,4 5 3 18 10 Z 1013,5 21 0,0
15.10.2018 15:00:00 19,4 9,9 8 5 22 12 Z 1013,7 24 0,0
15.10.2018 14:00:00 19,3 10,3 6 3 19 11 Z 1013,9 26 0,0
15.10.2018 13:00:00 19,1 10,6 6 3 21 11 ZZW 1014,0 24 0,0
15.10.2018 12:00:00 17,6 10,5 8 4 19 11 ZZO 1014,0 22 0,0
15.10.2018 11:00:00 15,3 10,7 6 3 14 8 Z 1014,4 21 0,0
15.10.2018 10:00:00 14,0 10,2 5 3 16 9 Z 1014,2 18 0,0
15.10.2018 09:00:00 12,0 9,7 3 2 12 7 Z 1014,4 14 0,0
15.10.2018 08:00:00 10,0 8,9 5 3 13 7 Z 1014,0 12 0,0
15.10.2018 07:00:00 9,7 8,8 5 3 15 8 Z 1014,1 11 0,0
15.10.2018 06:00:00 10,2 9,0 6 4 20 11 Z 1013,8 12 0,0
15.10.2018 05:00:00 10,4 9,0 6 4 16 9 Z 1013,8 13 0,0
15.10.2018 04:00:00 11,0 9,3 7 4 19 11 Z 1013,6 14 0,0
15.10.2018 03:00:00 11,6 9,3 8 5 20 11 Z 1013,5 16 0,0
15.10.2018 02:00:00 11,3 9,4 6 3 20 11 Z 1013,5 14 0,0
15.10.2018 01:00:00 11,4 9,7 6 4 16 8 Z 1014,1 13 0,0
15.10.2018 00:00:00 11,3 9,6 5 3 19 11 Z 1014,3 12 0,0
14.10.2018 23:00:00 11,5 9,6 7 4 18 10 ZZO 1014,5 12 0,0
14.10.2018 22:00:00 11,7 9,8 7 4 16 9 Z 1015,1 12 0,0
14.10.2018 21:00:00 12,1 9,7 6 3 22 12 Z 1015,4 13 0,0

tt = temperatuur
td = dauwpunt
ff = windsnelheid
fx = windstoten
dd = windrichting
ppp = luchtdruk
vv = zicht
rr = neerslag

Weerstations in de omgeving